Вернуться в каталог

QZS-1

MICHIBIKI

АктивенНавигацияMEO
NORAD 37158·PAYLOAD·🇯🇵 Japan

Запущен Sep 11, 2010 с Tanegashima Space Center

Loading…

Ближайшие Пролёты (ближайшие 24 часа)

TLE

СвежийSource: Space-Track

Эпоха: Sep 14, 2026, 04:56 UTC

1 37158U 10045A   26257.20583920  .00000010  00000-0  00000-0 0  9996
2 37158  44.3400 115.4147 0007639  55.8953 162.6006  0.87715528 57178

Отслеживайте QZS-1 в реальном времени с AllMySat

Download on the App Store